Date String (YYYY-MM-DD hh:mm:ss) UTC,Instrument flags,Ambient pressure (hPa),Sample flow (lpm),Bypass flow (lpm),Sample temperature (°C),Ambient temperature (°C),ASC tube jacket temperature (°C),LED temperature (°C),Box temperature (°C),Sample RH (%),Span deviation,Mass concentration (μg/m³),Mass concentration (μg/m³),Mass concentration (μg/m³)
DateTimeUTC,F1_M11,P_M11,Q1_M11,Q2_M11,T1_M11,T2_M11,T3_M11,T4_M11,T5_M11,U1_M11,ZSPAN_M11,X0_M11,X2_M11,X1_M11
2023-01-21 05:00:00,,0826.4,4.99,0.00,22.5,21.2,00.0,31.3,24.2,09.0,0000.0,0013.00,0008.27,0007.69
2023-01-21 05:01:00,,0826.4,4.99,0.00,22.5,21.0,00.0,31.3,24.2,09.0,0000.0,0012.77,0008.10,0007.56
2023-01-21 05:02:00,,0826.3,5.01,0.00,22.5,20.9,00.0,31.3,24.1,09.1,0000.0,0012.46,0007.91,0007.40
2023-01-21 05:03:00,,0826.3,5.01,0.00,22.4,20.8,00.0,31.3,24.1,09.0,0000.0,0011.99,0007.61,0007.14
2023-01-21 05:04:00,,0826.3,4.99,0.00,22.4,20.7,00.0,31.3,24.0,09.0,0000.0,0011.57,0007.31,0006.86
2023-01-21 05:05:00,,0826.4,5.00,0.00,22.4,20.6,00.0,31.3,24.0,09.1,0000.0,0010.96,0007.03,0006.61
2023-01-21 05:06:00,,0826.3,4.99,0.00,22.3,20.7,00.0,31.2,24.0,09.1,0000.0,0010.06,0006.84,0006.42
2023-01-21 05:07:00,,0826.3,4.99,0.00,22.3,20.6,00.0,31.2,23.9,09.1,0000.0,0009.96,0006.65,0006.25
2023-01-21 05:08:00,,0826.3,5.00,0.00,22.3,20.6,00.0,31.2,23.9,09.2,0000.0,0010.26,0006.50,0006.13
2023-01-21 05:09:00,,0826.3,5.02,0.00,22.2,20.6,00.0,31.2,23.9,09.2,0000.0,0010.24,0006.44,0006.06
2023-01-21 05:10:00,,0826.3,5.01,0.00,22.3,21.4,00.0,31.1,24.1,09.2,0000.0,0010.17,0006.43,0006.03
2023-01-21 05:11:00,,0826.3,5.00,0.00,22.4,22.4,00.0,31.1,24.3,09.1,0000.0,0010.30,0006.46,0006.07
2023-01-21 05:12:00,,0826.3,5.01,0.00,22.5,22.7,00.0,31.2,24.4,09.1,0000.0,0010.87,0006.57,0006.15
2023-01-21 05:13:00,,0826.5,4.99,0.00,22.5,22.3,00.0,31.2,24.4,09.0,0000.0,0011.51,0006.69,0006.25
2023-01-21 05:14:00,,0826.3,5.00,0.00,22.5,21.9,00.0,31.2,24.3,09.0,0000.0,0011.92,0006.81,0006.36
2023-01-21 05:15:00,,0826.3,4.99,0.00,22.5,21.6,00.0,31.2,24.3,09.1,0000.0,0012.16,0006.97,0006.50
2023-01-21 05:16:00,,0826.2,5.02,0.00,22.5,21.3,00.0,31.2,24.2,09.0,0000.0,0012.30,0007.08,0006.60
2023-01-21 05:17:00,,0826.2,4.99,0.00,22.5,21.2,00.0,31.2,24.2,09.0,0000.0,0013.04,0007.13,0006.68
2023-01-21 05:18:00,,0826.2,5.00,0.00,22.4,21.0,00.0,31.2,24.1,09.0,0000.0,0012.96,0007.18,0006.73
2023-01-21 05:19:00,,0826.2,5.00,0.00,22.4,20.8,00.0,31.2,24.1,09.0,0000.0,0012.29,0007.15,0006.72
2023-01-21 05:20:00,,0826.2,5.01,0.00,22.4,20.8,00.0,31.2,24.0,09.0,0000.0,0012.18,0007.09,0006.68
2023-01-21 05:21:00,,0826.2,5.01,0.00,22.3,20.7,00.0,31.2,23.9,09.0,0000.0,0012.10,0007.05,0006.65
2023-01-21 05:22:00,,0826.2,5.00,0.00,22.3,20.6,00.0,31.2,23.9,09.0,0000.0,0012.23,0006.98,0006.57
2023-01-21 05:23:00,,0826.3,4.99,0.00,22.2,20.6,00.0,31.2,23.8,09.1,0000.0,0011.92,0006.89,0006.48
2023-01-21 05:24:00,,0826.2,5.00,0.00,22.2,20.5,00.0,31.2,23.8,09.1,0000.0,0011.20,0006.77,0006.38
2023-01-21 05:25:00,,0826.2,5.00,0.00,22.2,20.6,00.0,31.1,23.8,09.1,0000.0,0010.76,0006.70,0006.33
2023-01-21 05:26:00,,0826.2,5.00,0.00,22.2,21.4,00.0,31.1,24.0,09.0,0000.0,0010.71,0006.66,0006.30
2023-01-21 05:27:00,,0826.2,5.01,0.00,22.3,22.3,00.0,31.1,24.2,09.0,0000.0,0010.68,0006.60,0006.26
2023-01-21 05:28:00,,0826.2,5.00,0.00,22.4,22.7,00.0,31.1,24.4,09.0,0000.0,0010.06,0006.56,0006.19
2023-01-21 05:29:00,,0826.2,5.00,0.00,22.5,22.3,00.0,31.1,24.3,08.9,0000.0,0010.07,0006.52,0006.14
2023-01-21 05:30:00,,0826.2,5.00,0.00,22.5,21.9,00.0,31.2,24.2,08.9,0000.0,0010.04,0006.50,0006.12
2023-01-21 05:31:00,,0826.2,5.02,0.00,22.4,21.5,00.0,31.2,24.2,08.9,0000.0,0009.91,0006.45,0006.09
2023-01-21 05:32:00,,0826.2,5.00,0.00,22.4,21.2,00.0,31.2,24.1,09.0,0000.0,0010.16,0006.44,0006.06
2023-01-21 05:33:00,,0826.2,4.98,0.00,22.4,21.0,00.0,31.2,24.0,09.0,0000.0,0010.38,0006.44,0006.05
2023-01-21 05:34:00,,0826.2,5.00,0.00,22.3,20.9,00.0,31.2,24.0,09.0,0000.0,0010.21,0006.39,0006.03
2023-01-21 05:35:00,,0826.2,5.01,0.00,22.3,20.7,00.0,31.1,23.9,09.0,0000.0,0010.13,0006.36,0006.00
2023-01-21 05:36:00,,0826.2,5.00,0.00,22.2,20.6,00.0,31.1,23.9,09.0,0000.0,0010.11,0006.33,0005.96
2023-01-21 05:37:00,,0826.2,5.00,0.00,22.2,20.5,00.0,31.1,23.8,09.0,0000.0,0010.02,0006.29,0005.92
2023-01-21 05:38:00,,0826.2,5.00,0.00,22.2,20.5,00.0,31.1,23.7,09.0,0000.0,0009.92,0006.25,0005.89
2023-01-21 05:39:00,,0826.2,5.01,0.00,22.1,20.4,00.0,31.1,23.7,09.0,0000.0,0010.70,0006.24,0005.89
2023-01-21 05:40:00,,0826.2,4.99,0.00,22.1,20.5,00.0,31.0,23.7,09.0,0000.0,0011.77,0006.27,0005.91
2023-01-21 05:41:00,,0826.2,5.00,0.00,22.2,21.4,00.0,31.0,23.9,09.0,0000.0,0011.92,0006.29,0005.92
2023-01-21 05:42:00,,0826.2,4.99,0.00,22.3,22.3,00.0,31.0,24.2,09.0,0000.0,0012.25,0006.36,0005.94
2023-01-21 05:43:00,,0826.2,5.00,0.00,22.4,22.7,00.0,31.0,24.4,08.9,0000.0,0012.42,0006.37,0005.96
2023-01-21 05:44:00,,0826.2,4.99,0.00,22.4,22.3,00.0,31.1,24.3,08.9,0000.0,0011.62,0006.36,0005.97
2023-01-21 05:45:00,,0826.2,4.99,0.00,22.4,21.8,00.0,31.1,24.2,08.8,0000.0,0011.76,0006.36,0005.98
2023-01-21 05:46:00,,0826.2,5.01,0.00,22.4,21.5,00.0,31.1,24.1,08.9,0000.0,0012.06,0006.31,0005.94
2023-01-21 05:47:00,,0826.2,5.00,0.00,22.4,21.2,00.0,31.1,24.0,08.9,0000.0,0011.98,0006.23,0005.87
2023-01-21 05:48:00,,0826.2,5.00,0.00,22.3,21.0,00.0,31.1,24.0,08.9,0000.0,0011.89,0006.16,0005.81
2023-01-21 05:49:00,,0826.2,5.01,0.00,22.3,20.9,00.0,31.1,23.9,08.9,0000.0,0011.85,0006.10,0005.74
2023-01-21 05:50:00,,0826.2,5.01,0.00,22.2,20.7,00.0,31.1,23.8,08.9,0000.0,0011.38,0006.05,0005.66
2023-01-21 05:51:00,,0826.2,5.01,0.00,22.2,20.5,00.0,31.1,23.8,08.9,0000.0,0010.02,0005.96,0005.58
2023-01-21 05:52:00,,0826.2,5.00,0.00,22.2,20.4,00.0,31.1,23.7,09.0,0000.0,0009.62,0005.89,0005.51
2023-01-21 05:53:00,,0826.2,5.01,0.00,22.1,20.3,00.0,31.0,23.7,09.0,0000.0,0009.45,0005.83,0005.45
2023-01-21 05:54:00,,0826.2,5.01,0.00,22.1,20.5,00.0,31.0,23.7,09.0,0000.0,0009.01,0005.75,0005.38
2023-01-21 05:55:00,,0826.2,4.99,0.00,22.1,21.4,00.0,31.0,23.9,09.0,0000.0,0008.93,0005.69,0005.32
2023-01-21 05:56:00,,0826.2,5.00,0.00,22.3,22.4,00.0,31.0,24.2,08.9,0000.0,0008.84,0005.65,0005.27
2023-01-21 05:57:00,,0826.2,4.99,0.00,22.4,22.7,00.0,31.0,24.3,08.9,0000.0,0008.51,0005.65,0005.28
2023-01-21 05:58:00,,0826.2,4.99,0.00,22.4,22.2,00.0,31.1,24.3,08.9,0000.0,0008.69,0005.70,0005.31
2023-01-21 05:59:00,,0826.2,5.01,0.00,22.4,21.8,00.0,31.1,24.2,08.9,0000.0,0008.72,0005.72,0005.35
